Date,TemperatureHighF,TemperatureAvgF,TemperatureLowF,DewpointHighF,DewpointAvgF,DewpointLowF,HumidityHigh,HumidityAvg,HumidityLow,PressureMaxIn,PressureMinIn,WindSpeedMaxMPH,WindSpeedAvgMPH,GustSpeedMaxMPH,PrecipitationSumIn
2013-1-1,50,40,31,31,25,19,91,58,36,30.27,30.20,5,1,11,0.00
2013-1-2,55,44,37,30,22,18,56,44,31,30.24,30.14,3,0,4,0.00
2013-1-3,53,43,37,33,26,20,72,54,39,30.26,30.15,2,0,4,0.00
2013-1-4,56,44,37,35,31,26,74,60,41,30.28,30.18,2,0,3,0.00
2013-1-5,43,40,36,40,35,30,96,85,70,30.24,30.07,2,0,3,0.59
2013-1-6,48,40,37,42,38,36,97,92,78,30.17,30.06,3,0,7,0.02
2013-1-7,57,46,36,48,42,35,97,87,70,30.23,30.15,3,1,7,0.00
2013-1-8,62,51,42,47,43,41,96,78,49,30.23,30.13,4,0,6,0.01
2013-1-9,47,42,33,44,39,30,97,90,74,30.15,29.92,5,1,10,0.00
2013-1-10,44,36,29,32,29,26,94,76,56,30.14,30.00,4,1,10,0.00
2013-1-11,47,36,30,32,29,25,88,76,54,30.19,30.08,3,1,8,0.00
2013-1-12,44,35,28,28,22,15,87,61,36,30.20,30.09,3,0,4,0.00
2013-1-13,46,36,27,21,14,7,74,43,24,30.22,30.15,6,1,11,0.00
2013-1-14,50,40,33,20,12,6,51,33,22,30.36,30.21,7,1,14,0.00
2013-1-15,57,46,37,31,24,17,54,43,30,30.46,30.37,4,0,10,0.00
2013-1-16,65,56,48,25,21,17,36,26,19,30.41,30.27,5,1,11,0.00
2013-1-17,67,57,49,21,16,12,29,21,13,30.28,30.18,6,1,10,0.00
2013-1-18,65,53,44,29,17,12,32,25,15,30.25,30.17,3,0,6,0.00
2013-1-19,63,51,45,23,16,12,36,25,19,30.28,30.19,3,0,6,0.00
2013-1-20,64,52,44,27,20,15,38,29,19,30.26,30.15,5,0,6,0.00
2013-1-21,65,53,46,32,24,16,47,33,21,30.19,30.13,3,0,5,0.00
2013-1-22,62,51,43,33,26,14,55,39,24,30.14,30.03,3,0,5,0.00
2013-1-23,52,47,44,45,38,29,97,74,46,30.11,29.98,2,0,4,0.58
2013-1-24,56,50,46,51,47,45,97,92,78,30.20,30.09,1,0,3,0.03
2013-1-25,58,51,46,52,48,45,98,92,80,30.20,30.06,3,0,4,0.00
2013-1-26,54,45,38,46,38,29,97,79,40,30.05,29.94,4,1,13,0.01
2013-1-27,49,40,31,33,31,29,92,74,48,30.15,30.01,5,1,8,0.00
2013-1-28,52,42,34,38,34,30,91,77,55,30.26,30.12,4,1,10,0.00
2013-1-29,57,46,36,39,36,32,86,70,45,30.34,30.25,3,1,8,0.00
2013-1-30,67,54,45,40,34,26,75,50,23,30.35,30.27,2,0,6,0.00
2013-1-31,64,52,43,42,36,31,81,58,38,30.30,30.20,3,0,4,0.00
2013-2-1,64,53,45,38,34,30,63,50,33,30.24,30.16,4,1,6,0.00
2013-2-2,63,53,45,43,39,32,84,60,39,30.30,30.22,6,0,6,0.00
2013-2-3,63,47,39,44,39,35,93,76,39,30.23,30.14,3,0,5,0.00
2013-2-4,65,53,44,43,39,31,85,62,36,30.16,30.06,2,0,5,0.00
2013-2-5,58,45,37,44,39,35,94,81,56,30.14,30.02,6,1,12,0.00
2013-2-6,57,43,35,39,36,32,96,78,49,30.17,30.08,3,0,6,0.00
2013-2-7,49,40,31,41,35,29,96,82,57,30.11,29.95,3,0,7,0.13
2013-2-8,51,40,31,34,28,16,96,67,26,29.99,29.91,8,1,16,0.00
2013-2-9,55,44,34,25,21,16,67,42,22,30.08,29.99,7,1,18,0.00
2013-2-10,60,47,38,32,26,17,65,45,20,30.11,30.03,6,1,10,0.00
2013-2-11,62,50,42,32,26,22,55,40,27,30.23,30.11,5,1,12,0.00
2013-2-12,61,49,42,36,32,27,75,53,36,30.35,30.23,5,0,6,0.00
2013-2-13,67,52,41,39,36,33,82,57,29,30.33,30.22,4,1,8,0.00
2013-2-14,69,59,52,36,32,28,49,37,27,30.26,30.20,10,2,13,0.00
2013-2-15,70,58,50,35,31,26,56,37,24,30.30,30.25,4,1,7,0.00
2013-2-16,70,55,46,40,34,28,64,48,23,30.27,30.05,3,0,5,0.00
2013-2-17,64,50,42,38,33,20,79,57,21,30.05,29.96,6,1,6,0.00
2013-2-18,53,44,34,40,36,31,90,75,59,29.99,29.86,3,0,7,0.00
2013-2-19,45,37,30,38,32,27,95,83,58,29.89,29.69,6,1,9,0.06
2013-2-20,55,41,30,33,30,27,91,69,39,30.02,29.81,7,1,8,0.00
2013-2-21,57,44,34,34,28,20,87,58,24,30.17,30.01,7,1,11,0.00
2013-2-22,64,48,36,38,35,32,84,62,33,30.23,30.15,5,1,10,0.00
2013-2-23,54,45,35,40,28,19,84,56,26,30.25,30.11,5,1,12,0.00
2013-2-24,62,48,39,34,22,13,68,39,18,30.26,30.16,8,1,11,0.00
2013-2-25,61,47,38,38,32,25,84,59,30,30.23,30.17,5,1,9,0.00
2013-2-26,66,50,37,30,21,15,74,36,15,30.23,30.18,5,1,10,0.00
2013-2-27,67,53,41,44,31,20,85,45,26,30.38,30.22,3,1,7,0.00
2013-2-28,68,55,46,49,46,43,91,74,48,30.46,30.36,4,0,7,0.01
2013-3-1,72,57,45,50,44,33,95,66,24,30.45,30.28,3,0,5,0.00
2013-3-2,68,58,50,50,46,42,85,68,46,30.29,30.09,3,0,5,0.00
2013-3-3,65,55,46,46,44,41,87,70,42,30.08,30.02,7,0,8,0.00
2013-3-4,64,50,42,49,41,30,94,73,45,30.11,30.01,6,1,8,0.00
2013-3-5,48,43,34,43,38,32,95,84,66,30.02,29.71,14,2,14,0.46
2013-3-6,48,41,33,42,38,32,96,91,69,30.01,29.70,18,2,18,0.35
2013-3-7,50,40,32,37,34,31,97,79,54,29.97,29.87,3,0,6,0.01
2013-3-8,60,49,36,39,36,31,92,62,35,30.03,29.84,5,1,9,0.00
2013-3-9,65,51,38,37,33,24,89,56,21,30.34,30.03,8,1,16,0.00
2013-3-10,71,56,45,38,32,23,72,42,17,30.36,30.25,6,1,9,0.00
2013-3-11,74,59,47,46,38,29,73,49,26,30.27,30.12,3,0,6,0.00
2013-3-12,77,61,50,50,46,38,81,60,25,30.18,30.11,4,0,7,0.00
2013-3-13,72,58,50,50,47,45,85,69,43,30.20,30.13,3,0,5,0.00
2013-3-14,72,60,52,51,46,34,86,63,34,30.19,30.11,4,0,6,0.00
2013-3-15,75,59,50,45,42,35,71,54,32,30.15,30.06,5,1,9,0.00
2013-3-16,73,57,47,44,40,31,82,57,22,30.13,30.04,6,1,9,0.00
2013-3-17,68,53,41,39,35,25,84,55,24,30.14,30.05,5,1,7,0.00
2013-3-18,67,55,44,43,39,27,81,57,35,30.11,30.03,2,0,5,0.00
2013-3-19,61,52,43,50,39,28,93,64,39,30.12,30.06,6,1,8,0.10
2013-3-20,56,48,42,51,46,40,96,93,82,30.11,30.04,4,1,10,0.25
2013-3-21,63,48,37,40,37,31,96,69,31,30.12,30.03,4,1,8,0.01
2013-3-22,63,50,39,37,27,12,84,47,14,30.13,30.06,6,2,9,0.00
2013-3-23,68,52,38,40,28,20,63,42,22,30.14,30.04,4,1,9,0.00
2013-3-24,71,58,45,43,40,35,77,54,30,30.09,29.97,3,1,7,0.00
2013-3-25,68,53,44,46,40,27,92,65,22,29.99,29.91,4,1,8,0.03
2013-3-26,66,52,39,47,42,38,95,72,46,29.98,29.93,5,1,8,0.00
2013-3-27,61,51,44,48,45,41,94,81,62,30.00,29.93,10,1,11,0.00
2013-3-28,58,49,42,52,46,41,96,89,66,30.12,29.99,3,0,4,0.07
2013-3-29,73,58,46,51,47,44,95,69,38,30.13,30.05,5,1,11,0.01
2013-3-30,69,57,50,55,49,45,95,75,51,30.07,30.01,6,0,6,0.14
2013-3-31,62,51,45,52,48,44,97,91,65,30.08,30.01,4,0,12,0.20
2013-4-1,61,51,45,51,48,45,97,88,66,30.16,30.05,4,0,6,0.00
2013-4-2,69,55,46,53,49,45,97,82,52,30.18,30.09,4,0,7,0.01
2013-4-3,72,58,48,54,48,42,89,72,43,30.14,30.00,4,1,8,0.00
2013-4-4,58,51,46,54,48,41,97,90,65,30.11,29.97,4,1,12,0.80
2013-4-5,60,51,43,50,47,42,98,86,67,30.17,30.10,5,1,10,0.00
2013-4-6,65,54,45,51,46,42,94,76,48,30.17,30.11,4,1,9,0.00
2013-4-7,61,52,43,50,46,41,95,80,63,30.15,29.77,9,2,10,0.04
2013-4-8,64,49,38,40,33,16,92,59,17,30.07,29.75,9,2,17,0.00
2013-4-9,71,58,45,41,30,17,58,38,13,30.18,30.07,10,2,13,0.00
2013-4-10,83,67,52,50,44,36,71,47,25,30.23,30.06,8,2,10,0.00
2013-4-11,75,59,45,45,40,23,89,56,16,30.05,29.87,6,1,10,0.00
2013-4-12,79,60,48,49,42,28,84,56,16,29.93,29.84,6,1,9,0.00
2013-4-13,73,60,49,47,41,36,72,52,36,29.90,29.83,6,1,11,0.00
2013-4-14,69,53,43,43,37,29,84,57,29,29.91,29.80,8,2,13,0.00
2013-4-15,58,46,38,38,33,27,87,63,32,29.95,29.82,9,2,13,0.00
2013-4-16,62,50,37,30,24,16,74,41,18,30.21,29.95,12,2,16,0.00
2013-4-17,64,53,44,32,24,18,51,35,17,30.30,30.21,8,2,16,0.00
2013-4-18,74,60,48,44,33,24,67,38,23,30.30,30.21,7,1,11,0.00
2013-4-19,79,64,52,49,45,43,78,54,30,30.25,30.11,6,1,9,0.00
2013-4-20,81,63,50,44,37,22,73,44,12,30.15,30.02,5,1,11,0.00
2013-4-21,85,68,55,47,41,30,67,41,16,30.09,29.99,5,1,8,0.00
2013-4-22,84,70,55,46,31,16,62,29,8,30.04,29.93,12,2,13,0.00
2013-4-23,82,64,57,46,20,12,45,20,9,30.01,29.88,15,2,20,0.00
2013-4-24,80,68,51,43,28,20,74,26,13,29.92,29.84,6,1,14,0.00
2013-4-25,77,58,41,50,45,39,94,66,34,30.09,29.91,4,1,7,0.00
2013-4-26,83,65,50,55,48,33,84,56,29,30.21,30.10,6,1,6,0.00
2013-4-27,86,70,57,53,44,33,60,41,25,30.23,30.09,5,1,8,0.00
2013-4-28,88,71,57,55,44,33,58,40,14,30.09,29.95,6,1,8,0.00
2013-4-29,87,72,61,51,48,44,63,44,23,29.97,29.82,4,1,7,0.00
2013-4-30,80,66,52,49,26,0,81,34,5,29.96,29.84,10,2,16,0.00
2013-5-1,80,69,57,22,16,11,18,13,9,30.16,29.96,9,3,17,0.00
2013-5-2,88,73,61,40,23,9,30,16,9,30.23,30.13,6,1,13,0.00
2013-5-3,89,73,57,43,33,25,41,25,11,30.14,29.87,6,1,13,0.00
2013-5-4,85,72,58,42,30,18,40,23,9,29.87,29.59,6,2,14,0.00
2013-5-5,62,54,45,48,45,34,93,73,40,29.84,29.60,6,1,8,0.00
2013-5-6,56,52,48,49,47,46,92,83,74,29.98,29.84,1,0,2,0.00
2013-5-7,71,57,47,50,47,44,90,71,48,30.05,29.98,7,1,8,0.00
2013-5-8,70,60,51,55,51,48,90,75,56,30.12,30.03,4,0,5,0.00
2013-5-9,79,65,51,57,52,48,92,67,40,30.15,30.06,5,1,8,0.00
2013-5-10,88,72,55,60,54,47,84,56,34,30.18,30.10,5,1,8,0.00
2013-5-11,90,75,62,60,54,49,74,51,25,30.16,30.10,5,0,7,0.00
2013-5-12,89,73,58,59,49,42,71,46,21,30.16,30.06,4,1,8,0.00
2013-5-13,90,72,57,55,48,41,70,46,26,30.09,29.98,7,1,10,0.00
2013-5-14,90,69,58,55,46,30,76,48,16,29.99,29.92,4,1,8,0.00
2013-5-15,80,64,52,49,45,39,80,52,31,30.02,29.95,5,1,8,0.00
2013-5-16,71,60,49,50,45,42,77,60,38,30.01,29.92,4,1,12,0.00
2013-5-17,72,57,43,47,42,37,90,60,28,30.05,29.95,6,1,10,0.00
2013-5-18,79,62,47,48,44,36,88,57,24,30.13,30.05,5,2,10,0.00
2013-5-19,82,67,52,44,35,18,72,37,13,30.17,30.05,9,1,12,0.00
2013-5-20,88,73,61,44,37,24,41,29,10,30.09,29.94,6,1,9,0.00
2013-5-21,66,58,45,40,36,29,66,44,28,29.98,29.90,6,1,13,0.00
2013-5-22,64,49,36,38,31,24,72,52,26,30.01,29.89,6,2,10,0.00
2013-5-23,71,54,40,42,38,33,84,57,25,30.01,29.88,6,1,10,0.00
2013-5-24,75,59,44,42,39,25,84,52,18,30.00,29.93,4,1,8,0.00
2013-5-25,76,60,47,46,43,38,85,56,31,30.01,29.93,8,1,9,0.00
2013-5-26,73,60,48,49,43,38,89,59,29,30.09,30.00,10,2,14,0.00
2013-5-27,65,55,48,53,48,38,94,77,57,30.09,29.99,6,1,9,0.01
2013-5-28,76,62,51,54,51,46,93,69,37,30.00,29.92,6,1,7,0.00
2013-5-29,77,63,51,51,46,39,87,56,28,29.96,29.91,6,2,9,0.00
2013-5-30,82,64,49,47,42,28,86,51,15,30.02,29.94,6,1,8,0.00
2013-5-31,91,74,55,49,41,26,73,37,10,30.06,29.98,6,1,11,0.00
2013-6-1,93,76,62,52,47,41,62,39,17,29.99,29.84,4,1,8,0.00
2013-6-2,93,76,59,54,48,38,63,41,15,29.84,29.70,3,1,9,0.00
2013-6-3,95,78,59,53,47,39,69,36,15,29.85,29.73,5,1,9,0.00
2013-6-4,90,70,52,57,51,47,82,56,29,29.93,29.84,5,1,7,0.00
2013-6-5,93,72,51,60,54,48,90,59,32,29.99,29.89,4,1,6,0.00
2013-6-6,98,78,58,63,56,46,86,50,23,29.95,29.86,3,1,9,0.00
2013-6-7,106,90,68,58,49,25,62,29,6,29.92,29.82,7,1,8,0.00
2013-6-8,108,90,72,59,53,44,54,32,13,29.83,29.75,9,1,9,0.00
2013-6-9,83,69,55,58,54,50,83,60,40,29.86,29.80,9,1,9,0.00
2013-6-10,61,56,50,54,51,48,95,86,75,29.97,29.78,11,1,11,0.03
2013-6-11,82,65,48,59,51,40,97,65,35,30.00,29.92,8,1,8,0.00
2013-6-12,84,63,52,51,43,29,82,55,14,29.98,29.91,6,1,10,0.00
2013-6-13,82,66,50,46,40,24,70,42,13,30.11,29.98,5,1,8,0.00
2013-6-14,88,73,59,46,34,19,62,28,8,30.06,29.86,6,2,11,0.00
2013-6-15,89,73,59,49,42,36,65,36,19,29.98,29.85,6,1,9,0.00
2013-6-16,87,71,57,46,42,36,55,36,19,30.09,29.98,7,1,12,0.00
2013-6-17,83,68,55,48,44,39,65,44,26,30.08,30.02,8,2,10,0.00
2013-6-18,54,52,51,43,42,42,73,70,64,29.98,29.96,3,1,12,0.00
2013-6-19,76,60,46,46,42,34,85,55,23,30.06,29.98,7,2,11,0.00
2013-6-20,82,65,50,48,42,36,83,49,21,30.03,29.95,6,1,10,0.00
2013-6-21,87,70,55,49,43,35,70,41,16,30.01,29.93,7,1,10,0.00
2013-6-22,90,73,59,46,44,42,60,38,20,29.98,29.86,5,1,12,0.00
2013-6-23,72,63,54,59,52,44,93,68,46,29.86,29.81,7,1,12,0.00
2013-6-24,58,55,53,55,53,51,96,91,84,29.92,29.78,5,0,8,0.16
2013-6-25,65,59,54,61,57,53,97,93,84,30.00,29.89,7,1,12,0.19
2013-6-26,78,67,58,62,60,57,97,79,52,30.09,30.00,6,1,8,0.01
2013-6-27,96,76,58,63,57,48,97,60,23,30.14,30.07,6,1,9,0.00
2013-6-28,101,84,68,64,55,45,76,43,18,30.10,29.98,6,1,12,0.00
2013-6-29,104,91,70,57,53,46,57,30,15,30.00,29.89,8,1,8,0.00
2013-6-30,103,89,70,61,55,48,61,34,18,29.91,29.83,10,1,10,0.00
2013-7-1,105,86,69,62,56,35,67,39,9,29.93,29.85,6,1,7,0.00
2013-7-2,110,93,75,65,59,40,58,36,11,29.95,29.89,12,1,12,0.00
2013-7-3,110,90,73,66,61,56,62,41,18,29.95,29.82,8,1,8,0.00
2013-7-4,106,90,71,60,51,39,45,29,12,29.87,29.74,15,2,15,0.00
2013-7-5,95,77,62,58,51,41,67,42,26,29.76,29.70,5,1,11,0.00
2013-7-6,92,74,57,59,56,52,85,56,31,29.80,29.74,6,1,6,0.00
2013-7-7,94,74,58,59,48,20,88,48,8,29.87,29.79,4,1,9,0.00
2013-7-8,93,76,59,54,45,19,72,41,9,30.00,29.87,4,1,8,0.00
2013-7-9,95,73,60,52,44,29,67,42,12,30.07,30.00,6,1,7,0.00
2013-7-10,95,79,69,51,40,33,44,26,12,30.01,29.97,5,1,9,0.00
2013-7-11,92,76,55,51,43,33,64,35,14,29.93,29.87,6,1,7,0.00
2013-7-12,91,71,54,56,51,40,87,52,26,29.93,29.88,5,1,7,0.00
2013-7-13,93,77,63,54,45,36,61,34,14,29.98,29.91,4,1,10,0.00
2013-7-14,96,78,63,53,43,24,62,33,8,30.01,29.91,4,1,9,0.00
2013-7-15,91,72,59,50,43,34,63,39,15,29.93,29.82,5,1,8,0.00
2013-7-16,83,64,47,51,47,42,94,59,26,30.02,29.85,6,1,8,0.00
2013-7-17,93,73,54,55,49,36,92,49,14,30.10,30.02,6,1,8,0.00
2013-7-18,96,79,62,54,48,33,63,37,11,30.08,29.96,6,1,10,0.00
2013-7-19,100,80,68,57,51,42,56,38,17,29.98,29.85,4,1,9,0.00
2013-7-20,106,86,72,59,54,47,50,36,17,29.88,29.76,5,1,9,0.00
2013-7-21,101,83,66,61,56,48,61,41,23,29.89,29.78,6,1,8,0.00
2013-7-22,93,74,58,52,47,41,70,41,19,30.00,29.89,6,1,10,0.00
2013-7-23,93,78,65,54,48,42,52,36,20,30.03,29.95,4,1,8,0.00
2013-7-24,99,82,68,58,55,51,64,40,23,30.01,29.95,5,1,9,0.00
2013-7-25,102,83,69,59,55,40,61,39,24,30.03,29.95,6,1,9,0.00
2013-7-26,100,83,68,58,53,37,61,37,22,30.09,30.01,5,1,8,0.00
2013-7-27,100,81,67,60,55,49,62,44,22,30.03,29.87,5,1,7,0.00
2013-7-28,95,77,62,59,51,26,78,46,9,29.88,29.79,5,1,9,0.00
2013-7-29,83,67,52,55,52,49,90,62,37,30.00,29.82,5,1,8,0.00
2013-7-30,91,72,54,57,53,46,91,56,22,30.10,30.00,6,1,8,0.00
2013-7-31,92,74,59,55,47,37,79,44,17,30.07,29.99,6,1,11,0.00
2013-8-1,87,71,56,48,43,32,67,40,14,30.04,29.98,6,1,11,0.00
2013-8-2,90,74,58,52,47,39,69,42,17,30.00,29.91,6,1,8,0.00
2013-8-3,92,76,63,52,46,37,58,37,15,29.98,29.93,7,1,8,0.00
2013-8-4,91,73,58,54,45,33,76,42,16,30.00,29.94,5,1,9,0.00
2013-8-5,90,72,56,50,40,27,73,37,13,30.02,29.95,6,1,9,0.00
2013-8-6,88,70,56,49,45,36,74,45,18,30.02,29.96,5,1,9,0.00
2013-8-7,78,61,49,54,51,47,95,73,43,30.08,30.02,6,1,9,0.00
2013-8-8,82,64,51,56,52,49,95,69,32,30.03,29.94,5,1,9,0.00
2013-8-9,84,68,53,55,51,47,90,59,29,29.98,29.91,7,1,12,0.00
2013-8-10,85,69,54,55,52,49,88,59,34,30.05,29.98,6,1,9,0.00
2013-8-11,89,72,60,56,52,44,78,52,25,30.03,29.95,6,1,9,0.00
2013-8-12,90,74,59,52,47,41,68,41,21,30.00,29.95,5,1,8,0.00
2013-8-13,95,78,64,51,44,36,51,33,14,30.03,29.95,6,1,9,0.00
2013-8-14,96,78,64,52,46,36,57,35,15,30.00,29.93,5,1,9,0.00
2013-8-15,95,75,62,61,56,47,83,56,20,29.99,29.94,6,1,10,0.00
2013-8-16,94,75,64,60,56,53,77,57,26,30.02,29.97,4,1,7,0.00
2013-8-17,94,85,71,59,54,49,49,35,24,30.02,29.89,6,1,9,0.00
2013-8-18,102,84,69,59,55,52,58,40,19,29.95,29.85,4,1,9,0.00
2013-8-19,100,88,74,59,53,42,47,32,14,29.97,29.87,6,1,10,0.00
2013-8-20,98,80,67,60,57,54,68,48,27,29.92,29.83,4,1,9,0.00
2013-8-21,91,74,61,59,50,38,70,47,18,29.94,29.88,6,1,7,0.00
2013-8-22,90,73,61,57,50,43,82,47,21,29.96,29.88,7,1,9,0.00
2013-8-23,91,73,59,54,50,43,74,48,27,29.93,29.82,8,1,9,0.00
2013-8-24,87,71,60,56,50,42,69,49,26,29.91,29.83,6,1,10,0.00
2013-8-25,81,67,56,58,54,49,85,64,41,29.96,29.89,5,1,10,0.00
2013-8-26,86,68,51,54,50,44,96,59,24,30.02,29.93,5,1,7,0.00
2013-8-27,89,70,59,54,49,32,75,53,15,29.94,29.84,5,1,9,0.00
2013-8-28,90,72,57,59,52,44,74,51,29,29.96,29.86,7,1,8,0.00
2013-8-29,88,73,59,59,56,53,81,58,34,30.07,29.96,5,1,8,0.00
2013-8-30,94,76,62,59,55,48,87,52,22,30.09,29.97,4,1,7,0.00
2013-8-31,94,76,62,55,49,41,73,43,16,30.00,29.91,5,1,10,0.00
2013-9-1,89,72,63,56,49,42,67,46,19,29.96,29.89,7,1,9,0.00
2013-9-2,84,70,57,58,54,51,86,60,32,29.97,29.90,6,1,11,0.00
2013-9-3,84,67,53,53,48,43,76,54,25,30.01,29.93,4,1,7,0.00
2013-9-4,85,68,55,56,51,43,91,59,25,30.05,29.95,3,1,7,0.00
2013-9-5,83,67,53,52,48,42,87,55,25,30.02,29.95,7,1,11,0.00
2013-9-6,90,73,58,52,45,33,76,42,15,30.04,29.91,7,1,10,0.00
2013-9-7,95,78,63,49,42,29,51,30,10,29.96,29.87,4,1,12,0.00
2013-9-8,98,81,66,48,44,37,43,28,12,29.93,29.83,4,1,7,0.00
2013-9-9,100,84,70,50,45,40,46,27,14,29.87,29.75,5,1,9,0.00
2013-9-10,99,79,58,54,47,41,81,36,15,29.90,29.77,5,1,10,0.00
2013-9-11,84,66,53,58,55,51,96,71,40,30.01,29.91,6,1,8,0.00
2013-9-12,86,68,57,61,54,41,95,66,29,30.00,29.89,4,0,6,0.00
2013-9-13,96,77,65,58,52,44,66,43,22,29.93,29.78,5,1,9,0.00
2013-9-14,94,77,65,56,51,43,62,43,19,29.82,29.75,6,1,10,0.00
2013-9-15,83,68,55,55,50,41,76,54,30,29.87,29.77,5,1,9,0.00
2013-9-16,86,68,54,57,52,48,92,60,29,29.92,29.80,4,1,7,0.00
2013-9-17,77,64,54,50,48,46,80,58,36,29.94,29.78,11,2,16,0.00
2013-9-18,85,66,54,48,41,21,80,46,10,29.96,29.87,5,1,13,0.00
2013-9-19,90,73,56,48,39,26,71,33,10,29.91,29.81,5,1,9,0.00
2013-9-20,78,65,54,57,47,34,94,57,28,29.85,29.78,9,2,15,0.00
2013-9-21,63,57,48,58,53,46,96,88,62,29.90,29.79,9,1,9,0.23
2013-9-22,72,58,47,52,48,43,97,73,37,30.03,29.90,4,1,10,0.01
2013-9-23,80,64,52,55,52,48,91,68,40,30.06,29.96,5,1,8,0.00
2013-9-24,75,59,51,50,48,41,81,69,30,30.00,29.89,15,1,15,0.00
2013-9-25,67,55,46,44,40,36,86,61,32,29.94,29.83,8,1,11,0.00
2013-9-26,70,58,46,40,33,25,77,42,19,30.05,29.88,7,2,13,0.00
2013-9-27,76,66,54,37,30,19,44,28,12,30.12,30.05,8,1,8,0.00
2013-9-28,79,64,52,50,38,28,82,42,17,30.12,30.02,11,1,11,0.00
2013-9-29,68,58,52,58,54,48,95,87,68,30.11,30.05,13,2,13,0.01
2013-9-30,70,60,49,61,55,44,95,83,59,30.08,29.98,12,1,12,0.00
2013-10-1,74,59,48,50,45,30,93,65,20,30.03,29.96,9,1,9,0.01
2013-10-2,76,57,49,49,44,27,87,67,16,30.03,29.96,8,1,9,0.00
2013-10-3,67,57,44,39,31,24,77,42,20,30.12,30.03,13,3,16,0.00
2013-10-4,74,64,55,27,23,20,33,22,13,30.18,30.08,10,3,17,0.00
2013-10-5,81,68,56,28,20,14,27,17,8,30.26,30.17,10,1,14,0.00
2013-10-6,81,66,53,34,27,22,40,24,12,30.19,30.06,3,0,8,0.00
2013-10-7,79,61,54,41,31,23,52,33,13,30.05,29.93,4,1,6,0.00
2013-10-8,76,62,52,41,38,34,65,44,22,29.94,29.73,4,1,9,0.00
2013-10-9,68,57,45,41,36,31,80,49,29,29.81,29.62,12,2,22,0.00
2013-10-10,73,60,52,43,36,32,63,43,25,30.02,29.80,5,1,9,0.00
2013-10-11,73,59,48,43,40,37,75,52,27,30.08,29.99,5,1,9,0.00
2013-10-12,73,59,49,47,42,31,82,57,21,30.01,29.89,5,1,9,0.00
2013-10-13,71,59,48,43,34,29,68,41,23,30.10,29.94,4,1,11,0.00
2013-10-14,74,62,52,35,30,23,50,32,18,30.16,30.06,7,1,8,0.00
2013-10-15,77,65,54,28,25,19,34,22,12,30.10,30.02,7,1,14,0.00
2013-10-16,79,65,55,32,27,23,35,25,14,30.14,30.05,3,1,8,0.00
2013-10-17,79,65,52,36,30,25,47,29,15,30.12,30.02,4,1,6,0.00
2013-10-18,83,68,58,38,33,28,41,29,14,30.09,30.03,6,1,7,0.00
2013-10-19,81,67,55,38,34,29,45,31,16,30.13,30.05,4,0,6,0.00
2013-10-20,84,68,56,40,36,30,46,33,14,30.07,29.94,3,0,8,0.00
2013-10-21,82,69,60,42,36,27,46,31,13,30.02,29.95,4,1,7,0.00
2013-10-22,82,68,56,40,35,31,48,31,17,30.05,29.96,3,0,6,0.00
2013-10-23,84,68,57,37,33,26,39,28,13,29.99,29.92,4,0,8,0.00
2013-10-24,80,66,55,39,32,26,52,31,14,30.08,29.96,4,1,8,0.00
2013-10-25,78,63,53,40,37,31,58,39,22,30.19,30.09,3,0,6,0.00
2013-10-26,81,66,55,40,36,31,50,35,18,30.18,30.05,3,0,5,0.00
2013-10-27,73,60,47,42,36,26,62,43,19,30.05,29.60,6,1,12,0.00
2013-10-28,62,50,40,41,37,33,88,65,36,29.83,29.64,4,1,6,0.00
2013-10-29,59,49,40,45,41,38,96,77,57,30.06,29.83,5,0,5,0.00
2013-10-30,64,52,43,45,42,40,92,71,45,30.15,30.05,3,0,6,0.00
2013-10-31,74,58,45,46,42,40,89,59,31,30.19,30.10,3,0,7,0.00
2013-11-1,74,62,54,43,41,40,61,47,33,30.19,30.06,3,0,6,0.00
2013-11-2,72,59,48,47,42,37,74,56,34,30.06,29.92,5,1,8,0.00
2013-11-3,59,49,39,37,31,19,77,53,22,30.06,29.93,6,1,9,0.00
2013-11-4,63,52,42,34,26,21,66,40,20,30.14,29.92,7,2,17,0.00
2013-11-5,70,57,47,41,33,27,59,42,25,30.25,30.12,4,1,8,0.00
2013-11-6,70,60,53,43,40,36,68,48,35,30.29,30.20,3,0,5,0.00
2013-11-7,72,59,51,46,41,37,81,54,30,30.21,30.09,6,0,7,0.00
2013-11-8,73,58,48,48,44,36,90,64,37,30.11,29.97,4,1,8,0.00
2013-11-9,71,59,50,45,42,39,72,54,35,30.06,30.00,4,0,7,0.00
2013-11-10,69,58,50,43,38,30,69,49,25,30.12,30.05,6,1,7,0.00
2013-11-11,68,57,48,40,35,28,56,44,32,30.21,30.09,3,0,5,0.00
2013-11-12,71,60,54,41,38,33,60,46,27,30.30,30.18,3,0,5,0.00
2013-11-13,77,62,52,46,43,41,69,53,31,30.29,30.13,4,1,8,0.00
2013-11-14,70,58,50,46,40,26,75,53,33,30.14,29.88,4,1,9,0.00
2013-11-15,64,51,42,37,30,18,78,48,18,29.88,29.73,5,1,10,0.00
2013-11-16,62,50,41,43,38,33,92,68,44,29.92,29.74,4,1,8,0.00
2013-11-17,61,50,42,44,41,39,95,74,44,30.08,29.92,5,0,5,0.00
2013-11-18,56,48,43,46,43,41,95,84,63,30.14,30.05,4,1,7,0.10
2013-11-19,51,48,45,50,48,44,97,96,94,30.08,29.94,5,0,5,0.38
2013-11-20,54,51,47,53,50,44,98,97,87,29.93,29.84,4,0,6,0.20
2013-11-21,54,49,45,44,22,8,87,39,19,30.07,29.90,19,3,21,0.00
2013-11-22,65,55,46,13,6,-1,22,14,7,30.10,29.98,9,3,21,0.00
2013-11-23,66,56,47,23,12,7,35,19,10,30.11,30.01,6,2,14,0.00
2013-11-24,60,50,42,38,30,20,80,48,30,30.25,30.11,3,0,5,0.00
2013-11-25,60,49,40,38,34,28,78,58,34,30.33,30.25,4,0,5,0.00
2013-11-26,61,51,41,37,31,27,69,49,33,30.29,30.07,4,0,4,0.00
2013-11-27,60,51,44,37,33,28,64,52,40,30.07,29.89,4,0,5,0.00
2013-11-28,68,56,47,38,35,33,63,47,29,30.10,29.91,3,0,6,0.00
2013-11-29,67,56,49,38,35,33,62,47,29,30.23,30.10,4,0,7,0.00
2013-11-30,68,56,48,38,36,34,67,48,29,30.29,30.21,3,0,6,0.00
2013-12-1,70,58,49,43,40,37,72,51,31,30.36,30.25,3,0,6,0.00
2013-12-2,65,54,48,48,42,36,91,67,38,30.25,29.93,6,1,12,0.00
2013-12-3,49,43,37,46,28,14,88,56,35,29.93,29.83,6,1,10,0.00
2013-12-4,46,36,27,18,10,1,59,36,18,30.05,29.93,5,1,7,0.00
2013-12-5,45,34,25,25,13,5,78,45,24,30.11,30.04,4,0,6,0.00
2013-12-6,42,34,26,37,27,18,96,76,42,30.13,29.86,4,0,9,0.29
2013-12-7,38,32,26,34,24,19,95,75,49,30.20,29.84,5,1,10,0.00
2013-12-8,39,33,25,21,12,-3,78,45,17,30.29,30.19,6,1,15,0.00
2013-12-9,51,42,34,12,7,-1,40,25,14,30.39,30.29,4,1,8,0.00
2013-12-10,54,42,32,22,16,9,49,35,25,30.39,30.19,4,0,5,0.00
2013-12-11,60,48,39,28,24,22,53,39,24,30.24,30.18,6,1,9,0.00
2013-12-12,59,48,41,28,24,20,55,39,25,30.25,30.16,4,0,5,0.00
2013-12-13,60,48,39,31,28,25,61,48,28,30.32,30.22,5,1,7,0.00
2013-12-14,63,52,43,33,29,24,62,44,28,30.41,30.31,4,0,6,0.00
2013-12-15,66,54,44,32,28,20,53,38,26,30.38,30.26,3,0,6,0.00
2013-12-16,74,61,52,26,22,17,31,23,12,30.27,30.16,2,0,5,0.00
2013-12-17,69,59,51,35,28,22,43,31,20,30.21,30.06,2,0,3,0.00
2013-12-18,63,54,45,35,30,27,60,42,29,30.06,29.71,4,1,10,0.00
2013-12-19,52,45,38,33,20,5,77,40,20,29.95,29.70,12,3,21,0.00
2013-12-20,62,50,42,35,9,-9,62,22,7,30.02,29.93,5,1,11,0.00
2013-12-21,64,52,43,44,40,35,90,66,42,30.11,29.96,4,1,7,0.00
2013-12-22,70,56,48,40,36,32,62,46,32,30.31,30.11,11,1,11,0.00
2013-12-23,66,55,50,40,38,33,63,52,35,30.42,30.30,3,0,4,0.00
2013-12-24,69,57,47,41,33,16,69,42,20,30.36,30.24,4,1,7,0.00
2013-12-25,70,58,51,24,17,12,30,21,14,30.32,30.23,3,0,5,0.00
2013-12-26,69,58,49,29,22,18,32,26,17,30.28,30.21,3,0,4,0.00
2013-12-27,63,53,46,28,23,18,42,32,25,30.26,30.13,3,0,4,0.00
2013-12-28,67,54,43,26,20,12,49,28,16,30.17,30.09,7,1,10,0.00
2013-12-29,67,57,51,14,7,2,21,14,8,30.20,30.13,5,1,13,0.00
2013-12-30,64,54,46,29,21,13,48,29,21,30.26,30.20,2,0,4,0.00
2013-12-31,64,53,46,28,22,18,50,32,17,30.28,30.18,2,0,5,0.00
2014-1-1,69,56,44,30,25,20,42,31,21,30.22,30.14,3,0,4,0.00
2014-1-2,69,57,49,34,30,26,48,37,26,30.21,30.08,3,0,5,0.00